Погода в Сирджане

Иран     29°27′18″N   55°40′09″E
темп.,
°C
ветер,
м/с
пор.,
м/с
влажн.,
%
обл.,
%
осадки,
мм/ч
давл.,
гПа
погр.,
м
4 марта, чт
чт400:30+12ю23431 0.0 101824
03:30+11юв344846 0.0 101728
06:30+11юв224977 0.0 101822
09:30+16з364038 0.0 1018897
12:30+19зюз68300 0.0 10162093
15:30+20з672925 0.0 10152492
18:30+17зсз114272 0.0 101623
21:30+16сз354570 0.0 101997
5 марта, пт
пт500:30+14в34557 0.0 101934
03:30+13юв34523 0.0 101829
06:30+13юв56500 0.0 102063
09:30+19ю812310 0.0 10181729
12:30+22юз1215210 0.0 10162845
15:30+21юз1418240 0.0 10133096
18:30+18юз8153217 0.0 1015597
21:30+15ююз6133617 0.0 1015356
6 марта, сб
сб600:30+14ю57380 0.0 1015116
03:30+12ююз23480 0.0 101433
06:30+10з22530 0.0 101623
09:30+14ссз22340 0.0 1016792
12:30+17з34160 0.0 10141355
15:30+19зсз3690 0.0 10122665
18:30+16сз58120 0.0 1014177
21:30+13ссз34180 0.0 101637
7 марта, вс
вс700:30+11с12260 0.0 101624
03:30+9зсз12310 0.0 101523
06:30+7з12350 0.0 101723
09:30+12юз21220 0.0 1017325
12:30+16юз22120 0.0 10141137
15:30+18юз3390 0.0 10111490
18:30+16ююз23150 0.0 101227
21:30+13ююв56250 0.0 101391
8 марта, пн
пн800:30+12юв45270 0.0 101252
03:30+10вюв56290 0.0 101262
06:30+9юв45350 0.0 101350
09:30+15ююв55230 0.0 1014577
12:30+19юз46110 0.0 10101471
15:30+21зюз7970 0.0 10082662
18:30+17зюз59150 0.0 1010165
21:30+14юз34210 0.0 101345